Regional Weather Roundup
Issued by NWS

Home | Current Version | Previous Version | Text Only | Print | Product List | Glossary On
Versions: 1 2 3 4 5 6 7 8 9 10 11 12 13 14 15 16 17 18 19 20 21 22 23 24 25 26 27 28 29 30 31 32 33 34 35 36 37 38 39 40 41 42 43 44 45 46 47 48 49 50
000
ASUS43 KOAX 221010
RWRNE

WEATHER ROUNDUP FOR NEBRASKA
NATIONAL WEATHER SERVICE OMAHA NE
500 AM CDT FRI AUG 22 2014

NOTES: SATELLITE DATA IS BEING USED TO AUGMENT CLOUD COVER ABOVE
       12000 FEET.
       "FAIR" INDICATES FEW OR NO CLOUDS BELOW 12,000 FEET WITH NO
       SIGNIFICANT WEATHER AND/OR OBSTRUCTIONS TO VISIBILITY.

  * THESE STATIONS DO NOT REPORT WEATHER SUCH AS RAIN...SNOW OR FOG.

NEZ001>004-019>022-054>056-221100-
NEBRASKA PANHANDLE

CITY           SKY/WX    TMP DP  RH WIND       PRES   REMARKS
SCOTTSBLUFF    CLOUDY    65  53  65 N7        30.07R
ALLIANCE       CLOUDY    66  50  56 NW7       30.03S
CHADRON        MOCLDY    59  51  75 W6        30.03R
KIMBALL        CLOUDY    63  54  71 S5        30.11R
SIDNEY         CLOUDY    64  60  87 S6        30.11R
$$

NEZ057>060-069>072-079>082-221100-
SOUTHWEST NEBRASKA

CITY           SKY/WX    TMP DP  RH WIND       PRES   REMARKS
NORTH PLATTE   PTCLDY    62  60  93 NW3       29.96F
IMPERIAL       MOCLDY    68  64  87 N3        29.99F
LEXINGTON      CLEAR     66  65  96 NW5       29.94R
MCCOOK         CLEAR     65  63  93 N3        29.94S
OGALLALA       MOCLDY    64  63  94 CALM      30.01S
$$

NEZ005>010-023>029-035>040-094-221100-
NORTH CENTRAL NEBRASKA

CITY           SKY/WX    TMP DP  RH WIND       PRES   REMARKS
VALENTINE      PTCLDY    66  61  84 SE3       29.96S
AINSWORTH      CLEAR     64  61  91 SE3       29.96S
BROKEN BOW     CLEAR     66  64  93 N5        29.95R
O`NEILL        CLEAR     66  65  94 E6        29.95S
ORD            CLEAR     66  65  96 CALM      29.92S
THEDFORD       PTCLDY    65  62  92 CALM      29.99R
$$

NEZ041-046>049-061>064-073>077-083>087-221100-
SOUTH CENTRAL NEBRASKA

CITY           SKY/WX    TMP DP  RH WIND       PRES   REMARKS
GRAND ISLAND   CLEAR     69  67  93 E7        29.92R
AURORA         CLEAR     70  70 100 NE5       29.92S
HASTINGS       CLEAR     69  65  86 NE6       29.91R
HEBRON         CLEAR     70  66  87 NE8       29.89R
HOLDREGE       CLEAR     67  65  93 N6        29.92R
KEARNEY *      CLEAR     70  66  88 NW7       29.92R
YORK           PTCLDY    68 N/A N/A N5        29.92S
$$

NEZ011>018-030>034-042>045-221100-
NORTHEAST NEBRASKA

CITY           SKY/WX    TMP DP  RH WIND       PRES   REMARKS
NORFOLK        CLEAR     69  67  93 CALM      29.91R
ALBION         CLEAR     69  66  92 CALM      29.93S FOG
BLAIR          MOCLDY    75  72  90 CALM      29.90S
FREMONT        MOCLDY    73  71  94 CALM      29.89F
TEKAMAH        CLOUDY    73  71  93 SE3       29.88S
WAYNE          PTCLDY    68  67  97 CALM      29.92R
$$

NEZ050>053-065>068-078-088>093-221100-
SOUTHEAST NEBRASKA

CITY           SKY/WX    TMP DP  RH WIND       PRES   REMARKS
LINCOLN        MOCLDY    77  71  82 CALM      29.90F
OMAHA EPPLEY   MOCLDY    74  69  85 SE5       29.89S
BEATRICE       CLOUDY    74  71  89 E3        29.89F
FALLS CITY     CLOUDY    79  72  79 S5        29.88F
NEBRASKA CITY  CLOUDY    76  76 100 W5        29.88F
PLATTSMOUTH    CLOUDY    73  70  89 E5        29.89F
$$

NEZ044-045-051>053-067-221100-
OMAHA AREA

CITY           SKY/WX    TMP DP  RH WIND       PRES   REMARKS
OMAHA EPPLEY   MOCLDY    74  69  85 SE5       29.89S
BLAIR          MOCLDY    75  72  90 CALM      29.90S
FREMONT        MOCLDY    73  71  94 CALM      29.89F
MILLARD        CLOUDY    74  72  92 CALM      29.88F
OFFUTT AFB     CLOUDY    73  73 100 CALM      29.88F
PLATTSMOUTH    CLOUDY    73  70  89 E5        29.89F
WAHOO          FAIR      71  68  90 CALM      29.90S
$$


USA.gov is the U.S. government's official web portal to all federal, state and local government web resources and services.